sat.trackr.live / text

‹ back to catalog

STARLINK-11313 [DTC]

NORAD 61255 · 2024-175N

PAYLOAD ACTIVE UNKNOWN

§ Identity

Operator
Country
US
Launch date
2024-09-25
Launch site
AFWTR
Launch vehicle
Mass (kg)
RCS (m²)

Purposes: comms

External: N2YO · Heavens-Above · Gunter

§ Orbital elements

Epoch: 2026-05-25T01:57:49.353408Z

Period
91.74 min
Inclination
53.1594°
Eccentricity
0.0000870
Mean motion
15.69708392 rev/d
Perigee alt
359.1 km
Apogee alt
360.3 km
Semi-major
6,737.9 km
B*
7.6894e-6
RAAN
39.7533°
Arg perigee
123.7644°
Mean anomaly
236.3457°
Rev number
9,536

§ Raw data

STARLINK-11313 [DTC]1 61255U 24175N   26145.08182122  .00000343  00000+0  76894-5 0  99982 61255  53.1594  39.7533 0000870 123.7644 236.3457 15.69708392 95363

JSON: /api/v1/satellites/61255 · /tle

For live sub-satellite position, see the globe view (requires WebGL).

§ Visibility from observer

Set your observer location to see the next 7 days of passes ≥ 10°. The values pass through the URL so the page stays shareable.

No JS? Fill the form by hand. The geolocation button needs JavaScript.